Wise, VA

12:05 PM EDT on May 27, 2017 (GMT -0400)
Lonesome Pine

Weather History for KLNP - August, 2013

Change the Weather History Date:

Tuesday, August 20, 2013

  Actual Average Record
Temperature  
Mean Temperature 70 °F -  
Max Temperature 78 °F 78 °F 89 °F (2007)
Min Temperature 62 °F 59 °F 55 °F (1998)
Cooling Degree Days 5    
Growing Degree Days 20 (Base 50)    
Moisture  
Dew Point 67 °F    
Average Humidity 90    
Maximum Humidity 100    
Minimum Humidity 69    
Precipitation  
Precipitation 0.00 in - - ()
Sea Level Pressure  
Sea Level Pressure 30.24 in    
Wind  
Wind Speed 1 mph (NE)    
Max Wind Speed 7 mph    
Max Gust Speed -    
Visibility 8 miles    
Events Fog , Rain , Thunderstorm    
Averages and records for this station are not official NWS values.
T = Trace of Precipitation, MM = Missing Value Source: NWS Daily Summary

Daily Weather History Graph

Daily Weather History Graph

Search for Another Location

Airport or City:

Trip Planner

Search our weather history database for the weather conditions in past years. The results will help you decide how hot, cold, wet, or windy it might be!

Date:

Astronomy

Aug. 20, 2013 Rise Set
Actual Time 6:51 AM EDT 8:14 PM EDT
Civil Twilight 6:24 AM EDT 8:42 PM EDT
Nautical Twilight 5:51 AM EDT 9:14 PM EDT
Astronomical Twilight 5:17 AM EDT 9:48 PM EDT
Moon 7:47 PM EDT (8/20) 6:19 AM EDT (8/20)
Length of Visible Light 14h 18m
Length of Day
13h 23m
Full, 100% of the Moon is Illuminated
Aug 20
Full
Aug 20
Full
Aug 28
Last Quarter
Sep 5
New
Sep 12
First Quarter

Hourly Weather History & Observations

Time (EDT) Temp. Dew Point Humidity Pressure Visibility Wind Dir Wind Speed Gust Speed Precip Events Conditions
12:15 AM 66.2 °F 66.2 °F 100% 30.23 in 10.0 mi Calm Calm - N/A   Clear
12:35 AM 64.4 °F 64.4 °F 100% 30.22 in 3.0 mi Calm Calm - N/A   Scattered Clouds
12:55 AM 64.4 °F 64.4 °F 100% 30.23 in 7.0 mi Calm Calm - N/A   Mostly Cloudy
1:15 AM 64.4 °F 64.4 °F 100% 30.23 in 7.0 mi Calm Calm - N/A   Overcast
1:35 AM 64.4 °F 64.4 °F 100% 30.23 in 7.0 mi Calm Calm - N/A   Scattered Clouds
1:55 AM 64.4 °F 64.4 °F 100% 30.22 in 10.0 mi Calm Calm - N/A   Scattered Clouds
2:15 AM 64.4 °F 64.4 °F 100% 30.22 in 7.0 mi Calm Calm - N/A   Scattered Clouds
2:35 AM 64.4 °F 64.4 °F 100% 30.21 in 7.0 mi Calm Calm - N/A   Mostly Cloudy
2:55 AM 64.4 °F 64.4 °F 100% 30.22 in 1.2 mi Calm Calm - N/A   Overcast
3:15 AM 66.2 °F 66.2 °F 100% 30.21 in 10.0 mi Calm Calm - N/A   Scattered Clouds
3:35 AM 64.4 °F 64.4 °F 100% 30.21 in 5.0 mi Calm Calm - N/A   Scattered Clouds
3:55 AM 64.4 °F 64.4 °F 100% 30.21 in 4.0 mi SE 3.5 mph - N/A   Clear
4:15 AM 64.4 °F 64.4 °F 100% 30.21 in 7.0 mi Calm Calm - N/A   Scattered Clouds
4:35 AM 64.4 °F 64.4 °F 100% 30.21 in 2.5 mi Calm Calm - N/A   Mostly Cloudy
4:55 AM 64.4 °F 64.4 °F 100% 30.20 in 7.0 mi Calm Calm - N/A   Mostly Cloudy
5:15 AM 64.4 °F 64.4 °F 100% 30.20 in 4.0 mi Calm Calm - N/A   Scattered Clouds
5:35 AM 62.6 °F 62.6 °F 100% 30.21 in 0.8 mi Calm Calm - N/A   Mostly Cloudy
5:55 AM 64.4 °F 64.4 °F 100% 30.21 in 2.0 mi Calm Calm - N/A   Overcast
6:15 AM 64.4 °F 64.4 °F 100% 30.21 in 3.0 mi Calm Calm - N/A   Overcast
6:35 AM 64.4 °F 64.4 °F 100% 30.22 in 1.0 mi Calm Calm - N/A   Overcast
6:55 AM 62.6 °F 62.6 °F 100% 30.23 in 0.2 mi Calm Calm - N/A Fog Fog
7:15 AM 62.6 °F 62.6 °F 100% 30.24 in 0.2 mi Calm Calm - N/A Fog Fog
7:35 AM 62.6 °F 62.6 °F 100% 30.24 in 0.2 mi Calm Calm - N/A Fog Fog
7:55 AM 64.4 °F 64.4 °F 100% 30.24 in 0.2 mi Calm Calm - N/A Fog Fog
8:15 AM 66.2 °F 66.2 °F 100% 30.25 in 1.5 mi Calm Calm - N/A   Overcast
8:35 AM 68.0 °F 68.0 °F 100% 30.25 in 7.0 mi Calm Calm - N/A   Overcast
8:55 AM 68.0 °F 68.0 °F 100% 30.26 in 10.0 mi Calm Calm - N/A   Overcast
9:15 AM 68.0 °F 68.0 °F 100% 30.27 in 10.0 mi Calm Calm - N/A   Overcast
9:35 AM 69.8 °F 69.8 °F 100% 30.27 in 10.0 mi Calm Calm - N/A   Overcast
9:55 AM 71.6 °F 71.6 °F 100% 30.27 in 10.0 mi Calm Calm - N/A   Overcast
10:15 AM 69.8 °F 69.8 °F 100% 30.28 in 10.0 mi Calm Calm - N/A   Overcast
10:35 AM 71.6 °F 71.6 °F 100% 30.28 in 10.0 mi North 3.5 mph - N/A   Overcast
10:55 AM 71.6 °F 71.6 °F 100% 30.28 in 10.0 mi NE 4.6 mph - N/A   Overcast
11:15 AM 75.2 °F 69.8 °F 83% 30.28 in 10.0 mi East 3.5 mph - N/A   Overcast
11:35 AM 75.2 °F 68.0 °F 78% 30.29 in 10.0 mi North 3.5 mph - N/A   Overcast
11:55 AM 73.4 °F 68.0 °F 83% 30.29 in 10.0 mi North 4.6 mph - N/A   Overcast
12:15 PM 73.4 °F 66.2 °F 78% 30.29 in 10.0 mi Calm Calm - N/A   Overcast
12:35 PM 73.4 °F 68.0 °F 83% 30.29 in 10.0 mi NNE 4.6 mph - N/A   Overcast
12:55 PM 77.0 °F 68.0 °F 74% 30.28 in 10.0 mi NE 3.5 mph - N/A   Mostly Cloudy
1:15 PM 77.0 °F 66.2 °F 69% 30.28 in 10.0 mi NNE 3.5 mph - N/A   Mostly Cloudy
1:35 PM 73.4 °F 68.0 °F 83% 30.28 in 10.0 mi NNE 4.6 mph - N/A Rain Light Rain
1:55 PM 71.6 °F 69.8 °F 94% 30.28 in 10.0 mi NW 4.6 mph - N/A Rain Light Rain
2:15 PM 78.8 °F 69.8 °F 74% 30.26 in 10.0 mi NNW 3.5 mph - N/A   Scattered Clouds
2:35 PM 75.2 °F 68.0 °F 78% 30.26 in 10.0 mi North 6.9 mph - N/A   Mostly Cloudy
2:55 PM 75.2 °F 68.0 °F 78% 30.26 in 10.0 mi North 5.8 mph - N/A   Overcast
3:15 PM 77.0 °F 68.0 °F 74% 30.25 in 10.0 mi NNE 4.6 mph - N/A   Mostly Cloudy
3:35 PM 77.0 °F 69.8 °F 78% 30.24 in 10.0 mi North 4.6 mph - N/A   Mostly Cloudy
3:55 PM 77.0 °F 68.0 °F 74% 30.23 in 10.0 mi NNE 3.5 mph - N/A   Mostly Cloudy
4:15 PM 78.8 °F 69.8 °F 74% 30.23 in 10.0 mi NNE 4.6 mph - N/A   Scattered Clouds
4:35 PM 77.0 °F 68.0 °F 74% 30.23 in 10.0 mi Calm Calm - N/A   Mostly Cloudy
4:55 PM 78.8 °F 68.0 °F 69% 30.22 in 10.0 mi Calm Calm - N/A   Mostly Cloudy
5:15 PM 78.8 °F 68.0 °F 69% 30.22 in 10.0 mi Calm Calm - N/A   Mostly Cloudy
5:35 PM 77.0 °F 68.0 °F 74% 30.22 in 10.0 mi Calm Calm - N/A   Overcast
5:55 PM 77.0 °F 68.0 °F 74% 30.22 in 10.0 mi Calm Calm - N/A   Overcast
6:15 PM 77.0 °F 68.0 °F 74% 30.22 in 10.0 mi Calm Calm - N/A   Overcast
6:35 PM 77.0 °F 68.0 °F 74% 30.22 in 10.0 mi Calm Calm - N/A   Overcast
6:55 PM 77.0 °F 68.0 °F 74% 30.22 in 10.0 mi NNE 3.5 mph - N/A   Overcast
7:15 PM 75.2 °F 68.0 °F 78% 30.23 in 10.0 mi Calm Calm - N/A   Overcast
7:35 PM 75.2 °F 68.0 °F 78% 30.23 in 10.0 mi Calm Calm - N/A   Overcast
7:55 PM 73.4 °F 68.0 °F 83% 30.23 in 10.0 mi Calm Calm - N/A   Overcast
8:15 PM 73.4 °F 68.0 °F 83% 30.23 in 10.0 mi Calm Calm - N/A   Mostly Cloudy
8:35 PM 71.6 °F 68.0 °F 88% 30.23 in 10.0 mi Calm Calm - N/A   Mostly Cloudy
8:55 PM 71.6 °F 68.0 °F 88% 30.24 in 10.0 mi Calm Calm - N/A   Mostly Cloudy
9:15 PM 69.8 °F 69.8 °F 100% 30.25 in 10.0 mi Calm Calm - N/A Thunderstorm Mostly Cloudy
9:35 PM 71.6 °F 68.0 °F 88% 30.26 in 10.0 mi ESE 4.6 mph - N/A Thunderstorm Overcast
9:55 PM 71.6 °F 71.6 °F 100% 30.26 in 10.0 mi ESE 3.5 mph - N/A Thunderstorm Overcast
10:15 PM 71.6 °F 68.0 °F 88% 30.27 in 10.0 mi NW 3.5 mph - N/A Thunderstorm Mostly Cloudy
10:35 PM 69.8 °F 69.8 °F 100% 30.27 in 10.0 mi North 4.6 mph - N/A   Mostly Cloudy
10:55 PM 69.8 °F 69.8 °F 100% 30.27 in 10.0 mi Calm Calm - N/A   Overcast
11:15 PM 68.0 °F 68.0 °F 100% 30.27 in 10.0 mi SE 4.6 mph - N/A   Scattered Clouds
11:35 PM 68.0 °F 68.0 °F 100% 30.27 in 10.0 mi SE 3.5 mph - N/A   Clear
11:55 PM 68.0 °F 68.0 °F 100% 30.27 in 10.0 mi SE 3.5 mph - N/A   Scattered Clouds